This is the latest recevied weather packets stored in our database for station/object OK2PAT-12. If no packets are shown the sender has not sent any weather packets the latest 10 day(s).
| Time | Temp. | Humidity | Pressure | Rain* | Wind** | Luminosity | Snow |
|---|---|---|---|---|---|---|---|
| 1777576762 | 8.89° C | 48% | 1029.4 hPa | - | - | - | - |
| 1777576162 | 8.89° C | 48% | 1029.4 hPa | - | - | - | - |
| 1777575562 | 8.89° C | 47% | 1029.4 hPa | - | - | - | - |
| 1777574962 | 9.44° C | 47% | 1029.3 hPa | - | - | - | - |
| 1777574362 | 9.44° C | 48% | 1029.3 hPa | - | - | - | - |
| 1777573758 | 9.44° C | 47% | 1029.2 hPa | - | - | - | - |
| 1777572558 | 10° C | 47% | 1029.1 hPa | - | - | - | - |
| 1777571958 | 10.56° C | 46% | 1029.1 hPa | - | - | - | - |
| 1777571358 | 10.56° C | 44% | 1029.1 hPa | - | - | - | - |
| 1777570758 | 11.11° C | 43% | 1029.1 hPa | - | - | - | - |
| 1777570158 | 11.11° C | 42% | 1029.1 hPa | - | - | - | - |
| 1777568958 | 12.22° C | 40% | 1029.1 hPa | - | - | - | - |
| 1777568358 | 12.22° C | 38% | 1029 hPa | - | - | - | - |
| 1777567758 | 12.78° C | 37% | 1029 hPa | - | - | - | - |
| 1777567158 | 13.33° C | 36% | 1029 hPa | - | - | - | - |
| 1777566557 | 13.33° C | 36% | 1029 hPa | - | - | - | - |
| 1777565958 | 12.78° C | 35% | 1029 hPa | - | - | - | - |
| 1777565359 | 12.78° C | 35% | 1029.2 hPa | - | - | - | - |
| 1777564757 | 12.78° C | 34% | 1029.2 hPa | - | - | - | - |
| 1777564157 | 12.78° C | 34% | 1029.2 hPa | - | - | - | - |
| 1777563557 | 12.78° C | 33% | 1029.3 hPa | - | - | - | - |
| 1777562958 | 12.78° C | 32% | 1029.3 hPa | - | - | - | - |
| 1777562358 | 12.78° C | 31% | 1029.4 hPa | - | - | - | - |
| 1777561757 | 12.78° C | 32% | 1009.4 hPa | - | - | - | - |
| 1777561157 | 12.78° C | 34% | 1029.5 hPa | - | - | - | - |
* Rain since midnight (hover to see other rain measurements)
** Current wind speed in m/s (hover to see current wind gust speed)